Regional Weather Roundup
Issued by NWS Newport/Morehead, NC

Current Version | Previous Version | Graphics & Text | Print | Product List | Glossary On
Versions: 1 2 3 4 5 6 7 8 9 10 11 12 13 14 15 16 17 18 19 20 21 22 23 24 25 26 27 28 29 30 31 32 33 34 35 36 37 38 39 40 41 42 43 44 45 46 47 48 49 50
000 ASUS42 KMHX 101312 RWRMHX WEATHER ROUNDUP FOR EASTERN NORTH CAROLINA NATIONAL WEATHER SERVICE NEWPORT/MOREHEAD CITY NC 800 AM EST SAT DEC 10 2016 NOTE: "FAIR" INDICATES FEW OR NO CLOUDS BELOW 12,000 FEET WITH NO SIGNIFICANT WEATHER AND/OR OBSTRUCTIONS TO VISIBILITY NCZ015>017-031-032-045>047-102-103-101400- NORTH COAST CITY SKY/WX TMP DP RH WIND PRES REMARKS EDENTON NOT AVBL ELIZABETH CITY CLEAR 26 20 77 W6 30.54R KITTY HAWK SUNNY 32 26 77 CALM 30.50R MANTEO CLEAR 33 23 67 N9 30.52R $$ NCZ045>047-081-094-103-104-101400- CENTRAL COAST CITY SKY/WX TMP DP RH WIND PRES REMARKS FRISCO CLEAR 38 23 55 VRB6 30.51R $$ NCZ095-097-098-100-101-101400- SOUTHERN COAST CITY SKY/WX TMP DP RH WIND PRES REMARKS BEAUFORT CLEAR 33 25 72 N7 30.53R CEDAR ISLAND NOT AVBL JACKSONVILLE CLEAR 28 19 69 N5 30.55R PINEY ISLAND SUNNY N/A N/A N/A N8 30.52R WILMINGTON CLEAR 28 20 71 N6 30.55R $$ NCZ011>013-027>030-043-044-078>080-089-090>093-098-101400- COASTAL PLAIN CITY SKY/WX TMP DP RH WIND PRES REMARKS AHOSKIE N/A 20 18 91 CALM 30.55R CLINTON PTCLDY 26 19 75 CALM 30.56R ELIZABETHTOWN CLEAR 26 20 79 CALM 30.55R GOLDSBORO PTCLDY 26 18 74 CALM 30.53S GREENVILLE CLEAR 23 21 93 CALM 30.55R HAVELOCK CLEAR 32 22 66 N6 30.54R KENANSVILLE PTCLDY 23 18 80 NW3 30.55R KINSTON PTCLDY 25 19 80 CALM 30.56R NEW BERN PTCLDY 28 19 69 N7 30.56R RICHLANDS CLEAR 27 23 85 CALM 30.55R ROCKY MOUNT PTCLDY 24 18 77 NW3 30.55R WASHINGTON PTCLDY 26 19 76 CALM 30.55R WHITEVILLE CLEAR 29 18 64 N5 30.55R $$ AMZ130-135-150-152-154-156-158-170-250-252-270-ANZ085-086-088-633-658-670-101400- MARINE OBSERVATIONS STATION/POSITION TIME TEMP WIND PRES WAVE SWELL AIR SEA DIR/SP/G HT/PER HT/PER (UTC) (F) (DEG/KT/KT) (MB) (FT/S) (FT/S) CHESAPEAKE LIGHT NOT AVBL 64 E VA BEACH 1250 39 58 310/ 14/ 17 1032.0 5/ 6 3/ 7 DUCK 1248 33 51 320/ 11/ 14 1032.7 2 E DUCK NOT AVBL OREGON INLET 1242 35 50 320/ 9/ 12 1032.9 13E OREGON INLT NOT AVBL HATTERAS CG 1248 38 52 360/ 14/ 16 1032.5 DIAMOND BUOY 1250 42 77 350/ 14/ 19 1032.5 5/ 8 3/ 8 CAPE LOOKOUT 1200 35 360/ 10/ 13 1032.7 BEAUFORT LAB 1248 34 50 360/ 10/ 12 1032.5 30 SE NEW RVR IN 1208 42 69 40/ 10/ 17 1033.0 30 SE NEW RVR IN 1243 69 N/A 3/ 4 27 SE WRIGHTSVLE 1208 42 69 30/ 12/ 17 1032.7 5 SE WRIGHTSVLE 1208 34 60 10/ 17/ 27 1032.8 225 S CAPE HAT 1150 59 73 20/ 10/ 14 1029.0 5/ 8 5/ 8 41 SE CHARLESTON 1150 49 73 30/ 14/ 17 1031.6 4/ 5 2/ 8 $$

USA.gov is the U.S. government's official web portal to all federal, state and local government web resources and services.